Denver, CO

4:36 AM MDT on May 30, 2017 (GMT -0600)
Front Range

Weather History for KFTG - April, 2013

Change the Weather History Date:

Monday, April 1, 2013

  Actual Average (KBKF) Record (KBKF)
Temperature  
Mean Temperature 44 °F -  
Max Temperature 59 °F 55 °F 82 °F (2012)
Min Temperature 30 °F 30 °F 15 °F (2008)
Degree Days  
Heating Degree Days 20    
Moisture  
Dew Point 32 °F    
Average Humidity 76    
Maximum Humidity 93    
Minimum Humidity 34    
Precipitation  
Precipitation 0.00 in - - ()
Sea Level Pressure  
Sea Level Pressure 30.10 in    
Wind  
Wind Speed 9 mph (ESE)    
Max Wind Speed 24 mph    
Max Gust Speed 31 mph    
Visibility 12 miles    
Events Rain    
Averages and records for this station are not official NWS values.
T = Trace of Precipitation, MM = Missing Value Source: NWS Daily Summary

Daily Weather History Graph

Daily Weather History Graph

Search for Another Location

Airport or City:

Trip Planner

Search our weather history database for the weather conditions in past years. The results will help you decide how hot, cold, wet, or windy it might be!

Date:

Astronomy

Apr. 01, 2013 Rise Set
Actual Time 6:41 AM MDT 7:22 PM MDT
Civil Twilight 6:14 AM MDT 7:49 PM MDT
Nautical Twilight 5:42 AM MDT 8:22 PM MDT
Astronomical Twilight 5:09 AM MDT 8:55 PM MDT
Moon 12:32 AM MDT (4/1) 10:31 AM MDT (4/1)
Length of Visible Light 13h 35m
Length of Day
12h 40m
Waning Gibbous, 66% of the Moon is Illuminated
Apr 1
Waning Gibbous
Apr 2
Last Quarter
Apr 10
New
Apr 18
First Quarter
Apr 25
Full

Hourly Weather History & Observations

Time (MDT) Temp. Windchill Dew Point Humidity Pressure Visibility Wind Dir Wind Speed Gust Speed Precip Events Conditions
12:18 AM 41.0 °F 35.8 °F 30.2 °F 65% 30.13 in 10.0 mi North 8.1 mph - N/A   Clear
12:38 AM 37.4 °F 32.8 °F 30.2 °F 75% 30.14 in 10.0 mi NNW 5.8 mph - N/A   Clear
12:58 AM 37.4 °F 34.9 °F 30.2 °F 75% 30.16 in 10.0 mi North 3.5 mph - N/A   Clear
1:18 AM 37.4 °F 33.8 °F 30.2 °F 75% 30.16 in 10.0 mi North 4.6 mph - N/A   Clear
1:38 AM 35.6 °F 31.7 °F 30.2 °F 81% 30.16 in 10.0 mi NNE 4.6 mph - N/A   Clear
2:17 AM 35.6 °F 32.8 °F 32.0 °F 87% 30.16 in 10.0 mi East 3.5 mph - N/A   Clear
2:38 AM 35.6 °F - 32.0 °F 87% 30.16 in 10.0 mi Calm Calm - N/A   Clear
2:58 AM 33.8 °F 30.8 °F 30.2 °F 87% 30.16 in 10.0 mi East 3.5 mph - N/A   Clear
3:17 AM 33.8 °F 30.8 °F 30.2 °F 87% 30.16 in 10.0 mi East 3.5 mph - N/A   Clear
3:38 AM 32.0 °F 25.6 °F 30.2 °F 93% 30.14 in 10.0 mi East 6.9 mph - N/A   Clear
4:18 AM 32.0 °F 28.7 °F 30.2 °F 93% 30.14 in 10.0 mi ESE 3.5 mph - N/A   Clear
4:38 AM 32.0 °F 27.5 °F 28.4 °F 87% 30.14 in 10.0 mi ESE 4.6 mph - N/A   Clear
4:57 AM 30.2 °F 24.3 °F 28.4 °F 93% 30.14 in 10.0 mi ESE 5.8 mph - N/A   Clear
5:17 AM 30.2 °F 22.6 °F 28.4 °F 93% 30.14 in 10.0 mi ESE 8.1 mph - N/A   Clear
5:37 AM 30.2 °F 22.6 °F 28.4 °F 93% 30.14 in 10.0 mi SE 8.1 mph - N/A   Clear
6:18 AM 30.2 °F 23.4 °F 28.4 °F 93% 30.14 in 10.0 mi SE 6.9 mph - N/A   Clear
6:37 AM 30.2 °F 22.6 °F 28.4 °F 93% 30.14 in 10.0 mi ESE 8.1 mph - N/A   Clear
6:57 AM 30.2 °F 24.3 °F 28.4 °F 93% 30.14 in 10.0 mi SE 5.8 mph - N/A   Clear
8:50 AM 41.0 °F 33.1 °F 35.6 °F 81% 30.13 in 40.0 mi SE 15.0 mph - N/A   Partly Cloudy
10:47 AM 50.0 °F - 33.8 °F 54% 30.08 in 40.0 mi ESE 19.6 mph 25.3 mph N/A   Mostly Cloudy
11:47 AM 53.6 °F - 32.0 °F 44% 30.06 in 40.0 mi ESE 19.6 mph 26.5 mph N/A   Mostly Cloudy
1:49 PM 59.0 °F - 30.2 °F 34% 30.02 in 20.0 mi SSE 13.8 mph 28.8 mph N/A   Mostly Cloudy
2:50 PM 57.2 °F - 30.2 °F 36% 30.01 in 20.0 mi SE 19.6 mph 28.8 mph N/A   Mostly Cloudy
4:48 PM 53.6 °F - 32.0 °F 44% 29.99 in 20.0 mi ESE 24.2 mph 31.1 mph N/A   Mostly Cloudy
5:48 PM 51.8 °F - 32.0 °F 47% 30.00 in 20.0 mi ESE 21.9 mph 28.8 mph N/A   Scattered Clouds
6:50 PM 46.4 °F 38.3 °F 32.0 °F 57% 30.01 in 20.0 mi East 23.0 mph 29.9 mph N/A   Mostly Cloudy
7:48 PM 44.6 °F 35.9 °F 32.0 °F 61% 30.03 in 20.0 mi ESE 23.0 mph 28.8 mph N/A   Mostly Cloudy
8:25 PM 42.8 °F 34.3 °F 32.0 °F 66% 30.06 in 10.0 mi ESE 19.6 mph 25.3 mph N/A Rain Light Rain
8:58 PM 41.0 °F 31.1 °F 33.8 °F 76% 30.06 in 10.0 mi ESE 23.0 mph - N/A Rain Light Rain
9:18 PM 41.0 °F 31.9 °F 35.6 °F 81% 30.06 in 10.0 mi ESE 19.6 mph 28.8 mph N/A Rain Light Rain
9:38 PM 41.0 °F 32.5 °F 35.6 °F 81% 30.06 in 10.0 mi ESE 17.3 mph 23.0 mph N/A   Overcast
9:58 PM 41.0 °F 33.9 °F 35.6 °F 81% 30.06 in 10.0 mi ESE 12.7 mph - N/A   Overcast
10:18 PM 41.0 °F 33.5 °F 35.6 °F 81% 30.07 in 10.0 mi SE 13.8 mph - N/A   Mostly Cloudy
10:38 PM 41.0 °F 33.9 °F 35.6 °F 81% 30.06 in 10.0 mi SE 12.7 mph - N/A   Mostly Cloudy
10:58 PM 41.0 °F 34.7 °F 37.4 °F 87% 30.06 in 10.0 mi SSE 10.4 mph - N/A   Light Drizzle
11:18 PM 42.8 °F 35.8 °F 39.2 °F 87% 30.06 in 10.0 mi West 13.8 mph - N/A Rain Light Rain
11:38 PM 41.0 °F 33.9 °F 37.4 °F 87% 30.06 in 10.0 mi West 12.7 mph - N/A Rain Light Rain
11:57 PM 41.0 °F 33.5 °F 37.4 °F 87% 30.06 in 7.0 mi WSW 13.8 mph - N/A Rain Light Rain